Starlink 31446

operational
NORAD ID: 59315 Int'l Des: 2024-056 Owner: SPXS Country: US Constellation: starlink
LEOCIRCULAR

关于 Starlink 31446

正在加载描述...

实时位置

正在加载3D地球...

即将过境

高度历史

Altitude vs Time

uPlot chart will show altitude changes over time

两行轨道根数

1 59315U 24056V 25352.97725382 .00000475 00000-0 26779-4 0 9991
2 59315 43.0047 326.2514 0000805 284.6128 75.4634 15.27575412 98814
Epoch: Dec 18, 2025 • Age: 26 hours

当前状态

高度 491.4 km
速度 7.62 km/s
星下点 -31.50°S, 68.56°E
发射日期 Mar 24, 2024
运行时间 1.7 years
类型 internet

技术详情

分类 Payload
质量 730.00 kg
干质量 700.00 kg
总质量 730.00 kg
长度 0.30 m
直径 4.10 m
跨度 29.00 m
形状 Box + pan
制造商 SPXS
平台类型 Starlink V2M
阶段状态 In Orbit
所有者/国家 SPXS/US

大型星座

Loading constellations...